アトラス彗星

C/2023 C2 ( ATLAS )

English version
Home page
Updated on October 1, 2025

---------------------------------------------------------------------

・ プロフィール

発見日 2023年2月1日
発見光度 19.1等
発見者 Asteroid Terrestrial-Impact Last Alert System (ATLAS) search program

・ 写真集

・ 軌道要素

Epoch 2025 May 5.0 TT = JDT 2460800.5
T 2024 Nov. 16.78848 TT                                 Pike
q   2.3685428            (2000.0)            P               Q
z  +0.0003868      Peri.  357.44772     +0.48921010     +0.59231832
 +/-0.0000005      Node   301.00423     -0.78638460     -0.01788060
e   0.9990839      Incl.   48.32172     -0.37719059     +0.80550561
From 1108 observations 2023 Feb. 1-2025 Aug. 6, mean residual 0".8.

・ 星図

・ 光度変化

        m1 = 8.0 + 5 logΔ + 8.5 log r

---------------------------------------------------------------------

軌道要素はM.P.E.C. 2025-P113に掲載されたものです。
星図はステラナビゲータ Ver.11 (アストロアーツ) で作成したものです。
光度グラフはComet for Windowsで作成したものです。

---------------------------------------------------------------------

Copyright(C) Seiichi Yoshida (comet@aerith.net). All rights reserved.